Location: Kawakawa
(35.3830°S, 174.0670°E)
Time: 02:56:19
(UTC+13:00)

Explorer 7 - Pass Details

Date: 16 December 2019
Orbit: 485 x 679 km, 50.3° (Epoch: 29 January)

Event Time Altitude Azimuth Distance (km) Brightness Sun altitude
Rises 03:20:06 0° 295° (WNW) 2,683 - -24.7°
Reaches altitude 10° 03:22:26 10° 288° (WNW) 1,768 - -24.4°
Maximum altitude 03:26:16 43° 215° (SW) 728 - -24.0°
Exits shadow 03:26:19 43° 212° (SSW) 729 7.5 -24.0°
Drops below altitude 10° 03:29:58 10° 142° (SE) 1,712 10.4 -23.6°
Sets 03:32:12 0° 135° (SE) 2,587 11.6 -23.4°
